Location: Wildlife_Club
(35.6000°N, 81.4330°W)
Time: 21:45:59
(UTC-04:00)

A-11 Canister half - Pass Details

Date: 23 August 2020
Orbit: 1514 x 1686 km, 47.2° (Epoch: 26 September)

Event Time Altitude Azimuth Distance (km) Brightness Sun altitude
Rises 22:03:08 0° 303° (WNW) 4,799 13.1 -22.9°
Reaches altitude 10° 22:06:13 10° 302° (WNW) 3,834 12.2 -23.4°
Maximum altitude 22:15:58 71° 221° (SW) 1,729 9.2 -25.0°
Enters shadow 22:20:14 39° 149° (SSE) 2,307 9.4 -25.7°
